Norwood, MA

3:18 PM EST on January 24, 2017 (GMT -0500)
Norwood Memorial

Weather History for KOWD - August, 2013

Change the Weather History Date:

Saturday, August 31, 2013

  Actual Average Record
Temperature  
Mean Temperature 74 °F -  
Max Temperature 82 °F 76 °F 95 °F (2010)
Min Temperature 66 °F 52 °F 42 °F (1999)
Cooling Degree Days 9    
Growing Degree Days 24 (Base 50)    
Moisture  
Dew Point 69 °F    
Average Humidity 85    
Maximum Humidity 94    
Minimum Humidity 69    
Precipitation  
Precipitation 0.01 in - - ()
Sea Level Pressure  
Sea Level Pressure 29.82 in    
Wind  
Wind Speed 5 mph (South)    
Max Wind Speed 10 mph    
Max Gust Speed 17 mph    
Visibility 6 miles    
Events Rain    
Averages and records for this station are not official NWS values.
T = Trace of Precipitation, MM = Missing Value Source: NWS Daily Summary

Daily Weather History Graph

Daily Weather History Graph

Search for Another Location

Airport or City:

Trip Planner

Search our weather history database for the weather conditions in past years. The results will help you decide how hot, cold, wet, or windy it might be!

Date:

Astronomy

Aug. 31, 2013 Rise Set
Actual Time 6:09 AM EDT 7:19 PM EDT
Civil Twilight 5:40 AM EDT 7:48 PM EDT
Nautical Twilight 5:05 AM EDT 8:23 PM EDT
Astronomical Twilight 4:29 AM EDT 8:59 PM EDT
Moon 1:32 AM EDT (8/31) 4:18 PM EDT (8/31)
Length of Visible Light 14h 08m
Length of Day
13h 10m
Waning Crescent, 21% of the Moon is Illuminated
Aug 31
Waning Crescent
Sep 5
New
Sep 12
First Quarter
Sep 19
Full
Sep 26
Last Quarter

Hourly Weather History & Observations

Time (EDT) Temp. Heat Index Dew Point Humidity Pressure Visibility Wind Dir Wind Speed Gust Speed Precip Events Conditions
12:53 AM 70.0 °F - 66.9 °F 90% 29.83 in 8.0 mi SSW 3.5 mph - N/A   Clear
1:53 AM 66.9 °F - 64.9 °F 93% 29.82 in 5.0 mi South 3.5 mph - N/A   Clear
2:53 AM 66.9 °F - 64.9 °F 93% 29.82 in 4.0 mi South 3.5 mph - N/A   Clear
3:23 AM 66.2 °F - 64.4 °F 94% 29.82 in 4.0 mi South 3.5 mph - N/A   Partly Cloudy
3:53 AM 66.9 °F - 64.9 °F 93% 29.81 in 4.0 mi South 5.8 mph - N/A   Partly Cloudy
4:29 AM 68.0 °F - 66.2 °F 94% 29.81 in 3.0 mi South 3.5 mph - N/A   Mostly Cloudy
4:53 AM 69.1 °F - 66.9 °F 93% 29.81 in 4.0 mi South 4.6 mph - N/A   Overcast
5:32 AM 71.6 °F - 68.0 °F 88% 29.81 in 5.0 mi South 4.6 mph - N/A   Overcast
5:53 AM 70.0 °F - 68.0 °F 93% 29.81 in 4.0 mi South 5.8 mph - N/A   Overcast
6:53 AM 71.1 °F - 69.1 °F 93% 29.83 in 3.0 mi Calm Calm - N/A   Overcast
7:02 AM 71.6 °F - 69.8 °F 94% 29.83 in 3.0 mi Calm Calm - 0.00 in Rain Light Rain
7:22 AM 71.6 °F - 69.8 °F 94% 29.83 in 2.5 mi Calm Calm - 0.00 in   Overcast
7:53 AM 72.0 °F - 70.0 °F 93% 29.83 in 2.5 mi SE 4.6 mph - 0.00 in   Overcast
7:57 AM 71.6 °F - 69.8 °F 94% 29.83 in 3.0 mi SSE 3.5 mph - N/A   Mostly Cloudy
8:53 AM 75.0 °F - 70.0 °F 84% 29.83 in 6.0 mi SSW 8.1 mph - N/A   Haze
9:53 AM 77.0 °F - 70.0 °F 79% 29.83 in 7.0 mi SW 6.9 mph - N/A   Scattered Clouds
10:04 AM 77.0 °F - 69.8 °F 78% 29.83 in 8.0 mi SSW 6.9 mph - N/A   Mostly Cloudy
10:28 AM 78.8 °F - 69.8 °F 74% 29.83 in 8.0 mi Variable 5.8 mph - N/A   Overcast
10:53 AM 78.1 °F - 70.0 °F 76% 29.83 in 8.0 mi WSW 8.1 mph - N/A   Overcast
11:53 AM 79.0 °F - 70.0 °F 74% 29.82 in 8.0 mi SW 8.1 mph - N/A   Overcast
12:53 PM 81.0 °F 84.4 °F 70.0 °F 69% 29.82 in 9.0 mi SW 10.4 mph 17.3 mph N/A   Mostly Cloudy
1:53 PM 79.0 °F - 71.1 °F 77% 29.81 in 8.0 mi South 5.8 mph - 0.00 in Rain Light Rain
2:53 PM 81.0 °F 84.9 °F 71.1 °F 72% 29.80 in 9.0 mi SSW 6.9 mph - 0.01 in   Scattered Clouds
3:13 PM 82.4 °F 87.2 °F 71.6 °F 70% 29.80 in 9.0 mi SSW 9.2 mph - N/A   Mostly Cloudy
3:53 PM 81.0 °F 84.4 °F 70.0 °F 69% 29.81 in 8.0 mi SSW 6.9 mph - N/A   Mostly Cloudy
4:29 PM 78.8 °F - 71.6 °F 78% 29.80 in 8.0 mi South 8.1 mph - 0.00 in   Scattered Clouds
4:53 PM 78.1 °F - 71.1 °F 79% 29.80 in 7.0 mi South 5.8 mph - 0.00 in   Scattered Clouds
5:53 PM 75.9 °F - 71.1 °F 85% 29.80 in 7.0 mi South 5.8 mph - N/A   Clear
6:53 PM 75.0 °F - 70.0 °F 84% 29.80 in 7.0 mi SSW 6.9 mph - N/A   Clear
7:53 PM 73.9 °F - 70.0 °F 87% 29.81 in 7.0 mi South 3.5 mph - N/A   Clear
8:28 PM 73.4 °F - 69.8 °F 88% 29.81 in 7.0 mi SSE 4.6 mph - N/A   Mostly Cloudy
8:53 PM 73.0 °F - 70.0 °F 90% 29.82 in 7.0 mi Calm Calm - N/A   Overcast
9:32 PM 73.4 °F - 69.8 °F 88% 29.82 in 7.0 mi South 5.8 mph - N/A   Scattered Clouds
9:53 PM 73.0 °F - 70.0 °F 90% 29.83 in 7.0 mi South 5.8 mph - N/A   Clear
10:19 PM 73.4 °F - 69.8 °F 88% 29.82 in 8.0 mi South 8.1 mph - N/A   Partly Cloudy
10:53 PM 73.0 °F - 70.0 °F 90% 29.82 in 8.0 mi South 5.8 mph - N/A   Scattered Clouds
11:53 PM 73.9 °F - 70.0 °F 87% 29.82 in 10.0 mi SSW 3.5 mph - N/A   Partly Cloudy